Location: Saint John
(45.2733°N, 66.0633°W)
Time: 07:10:46
(UTC-03:00)

ISS - Visible Passes

Search period start: 02 July 2020 00:00
Search period end: 12 July 2020 00:00
Orbit: 417 x 420 km, 51.6° (Epoch: 02 July)

Date Brightness Start Highest point End Pass type
(mag) Time Alt. Az. Time Alt. Az. Time Alt. Az.
02 Jul -1.7 03:01:23 17° ESE 03:01:23 17° ESE 03:03:13 10° E visible
02 Jul -3.7 04:34:18 12° WSW 04:37:18 75° NNW 04:40:40 10° ENE visible
03 Jul -3.8 03:48:04 32° SW 03:49:26 72° SSE 03:52:47 10° ENE visible
04 Jul -3.2 03:01:46 44° SE 03:01:46 44° SE 03:04:49 10° ENE visible
04 Jul -2.6 04:35:14 10° W 04:38:25 40° NNW 04:41:37 10° NE visible
05 Jul -1.6 02:15:26 19° E 02:15:26 19° E 02:16:43 10° E visible
05 Jul -3.1 03:48:21 20° W 03:50:27 53° NNW 03:53:44 10° NE visible
06 Jul -3.7 03:01:57 58° W 03:02:29 77° NNW 03:05:52 10° ENE visible
06 Jul -1.9 04:36:39 10° WNW 04:39:37 28° N 04:42:36 10° NE visible
07 Jul -2.9 02:15:31 43° ENE 02:15:31 43° ENE 02:17:55 10° ENE visible
07 Jul -2.1 03:48:28 10° W 03:51:33 33° NNW 03:54:38 10° NE visible
08 Jul -1.4 01:29:00 17° ENE 01:29:00 17° ENE 01:29:55 10° ENE visible
08 Jul -2.5 03:01:54 23° WNW 03:03:30 40° NNW 03:06:43 10° NE visible
08 Jul -1.6 04:37:56 10° WNW 04:40:51 26° N 04:43:46 10° ENE visible
09 Jul -3.2 02:15:20 53° NW 02:15:29 54° NNW 02:18:48 10° NE visible
09 Jul -1.6 03:49:49 10° WNW 03:52:44 27° N 03:55:40 10° ENE visible
10 Jul -2.6 01:28:40 38° NE 01:28:40 38° NE 01:30:52 10° ENE visible
10 Jul -1.8 03:01:38 10° WNW 03:04:37 29° N 03:07:37 10° NE visible
10 Jul -1.8 04:38:58 10° NW 04:42:00 31° N 04:45:03 10° ENE visible
11 Jul -1.6 00:41:52 18° ENE 00:41:52 18° ENE 00:42:53 10° ENE visible
11 Jul -2.0 02:14:45 20° WNW 02:16:31 33° NNW 02:19:37 10° NE visible
11 Jul -1.6 03:50:57 10° NW 03:53:54 27° N 03:56:51 10° ENE visible
